Home   Weather   Emmendingen   Past weeks

Flag for Germany Past Weather in Emmendingen, Baden-Württemberg, Germany — Yesterday and Last 2 Weeks

Now
70 °F

Sunny.


Feels Like: 70 °F
Forecast: 54 / 65 °F
Wind: 3 mph from North

Location: Lahr - CAN-AFB

Current Time: Sep 30, 2016 at 6:53:16 PM

Latest Report: Sep 30, 2016 at 6:20 PM


Visibility: 10 mi

Pressure: 29.98 "Hg

Humidity: 60%

Dew Point: 55 °F

Location of EmmendingenLocation

Past Weather in Emmendingen — Graph

°F

Emmendingen Temperature Yesterday

Maximum temperature yesterday: 79 °F (at 3:50 PM)
Minimum temperature yesterday: 52 °F (at 7:50 AM)
Average temperature yesterday: 70 °F

High & Low Weather Summary for the Past Weeks

 TemperatureHumidityPressure
High79 °F (Sep 25, 4:20 PM)100% (Sep 18, 11:20 AM)30.42 "Hg (Sep 18, 11:20 AM)
Low45 °F (Sep 22, 7:50 AM)34% (Sep 29, 4:50 PM)29.92 "Hg (Sep 15, 5:20 PM)
Average63 °F69%30.15 "Hg
* Reported Sep 15 5:20 PM — Sep 30 5:20 PM, Emmendingen, Weather by CustomWeather, © 2016

Note: Actual official high and low records may vary slightly from our data, if they occured in-between our weather recording intervals... More about our weather records

Advertising

Emmendingen Weather History for the Previous 24 Hours

Scroll right to see more
 ConditionsComfort  
Time TempWeatherWind HumidityBarometerVisibility
5:20 PM
Fri, Sep 30
72 °FSunny.3 mph53%29.98 "Hg10 mi
4:50 PM72 °FSunny.6 mph57%29.98 "Hg10 mi
4:20 PM72 °FPassing clouds.6 mph53%30.01 "HgN/A
3:20 PM72 °FPassing clouds.6 mph47%30.01 "HgN/A
1:20 PM72 °FPassing clouds.9 mph41%30.01 "HgN/A
12:50 PM73 °FPassing clouds.8 mph38%30.01 "HgN/A
12:20 PM70 °FSunny.10 mph43%30.04 "Hg10 mi
11:50 AM70 °FPassing clouds.12 mph43%30.04 "HgN/A
11:20 AM70 °FPassing clouds.12 mph43%30.04 "HgN/A
10:50 AM70 °FPassing clouds.12 mph43%30.04 "HgN/A
10:20 AM68 °FSunny.12 mph46%30.04 "Hg10 mi
9:50 AM64 °FSunny.13 mph56%30.01 "Hg10 mi
9:20 AM64 °FSunny.8 mph56%30.01 "Hg10 mi
8:50 AM63 °FSunny.9 mph56%30.01 "Hg10 mi
8:20 AM63 °FSunny.12 mph56%30.01 "Hg10 mi
7:50 AM61 °FSunny.8 mph59%30.01 "Hg10 mi
7:20 AM61 °FClear.7 mph55%30.01 "Hg10 mi
6:50 AM61 °FClear.8 mph59%30.01 "Hg10 mi
6:20 AM55 °FClear.7 mph67%30.01 "Hg10 mi
6:20 PM
Thu, Sep 29
77 °FSunny.14 mph36%30.07 "Hg10 mi
Weather by CustomWeather, © 2016

See weather overviewHow to use our weather pages